Simultaneous Nadir Overpasses (SNOs) Predictions

Prediction of SNOs between METOP-B and TERRA Satellite Orbit:

Table of predicted SNOs for the next 14.0 days since TLE Epoch: 1/30/2021
Index Date (METOP-B) Time (METOP-B) Lat,Lon (METOP-B) SZA (METOP-B ) Date (TERRA) Time (TERRA) Lat,Lon (TERRA) SZA (TERRA ) Distance(km) Time Diff (sec)
1 02/01/2021 17:58:47 81.29, -43.41 100.39 02/01/2021 17:59:53 81.30, -43.25 100.43 2.76 66
2 02/01/2021 18:49:27 -81.30, 124.37 79.58 02/01/2021 18:49:20 -81.29, 124.30 79.60 1.42 7
3 02/04/2021 13:33:08 81.30, 23.24 99.58 02/04/2021 13:34:06 81.30, 23.28 99.61 1.07 58
4 02/04/2021 14:23:49 -81.30,-169.32 80.43 02/04/2021 14:23:33 -81.30,-169.14 80.41 3.15 16
5 02/07/2021 09:07:29 81.29, 89.48 98.69 02/07/2021 09:08:19 81.29, 89.40 98.70 1.60 50
6 02/07/2021 09:58:09 -81.30,-102.65 81.26 02/07/2021 09:57:45 -81.31,-102.61 81.27 0.66 24
7 02/10/2021 04:41:50 81.30, 156.09 97.82 02/10/2021 04:42:31 81.31, 156.24 97.86 2.71 41
8 02/10/2021 05:32:30 -81.31, -36.00 82.14 02/10/2021 05:31:58 -81.31, -36.13 82.16 2.25 32
9 02/13/2021 00:16:11 81.30,-137.31 96.91 02/13/2021 00:16:44 81.31,-137.34 96.92 0.87 33



Historial Predications of SNOs between METOP-B and TERRA
